Regional Weather Roundup
Issued by NWS

Home | Current Version | Previous Version | Graphics & Text | Print | Product List | Glossary Off
Versions: 1 2 3 4 5 6 7 8 9 10 11 12 13 14 15 16 17 18 19 20 21 22 23 24 25 26 27 28 29 30 31 32 33 34 35 36 37 38 39 40 41 42 43 44 45 46 47 48 49 50

321
ASUS43 KTOP 101808
RWRKS

WEATHER ROUNDUP FOR KANSAS
NATIONAL WEATHER SERVICE GOODLAND KS
1200 PM CST WED FEB 10 2016

NOTE:  "FAIR" INDICATES FEW OR NO CLOUDS BELOW 12,000 FEET WITH NO
SIGNIFICANT WEATHER AND/OR OBSTRUCTIONS TO VISIBILITY.

KSZ001>006-013>018-027>032-041>047-101900-
NORTHWEST KANSAS

CITY           SKY/WX    TMP DP  RH WIND       PRES   REMARKS
GOODLAND       SUNNY     54  27  35 NW10      30.08S
6HR MIN TEMP:  33; 6HR MAX TEMP:  54;

HAYS           SUNNY     55  28  35 W18       29.99F
HILL CITY      SUNNY     53  28  38 W13       29.99S
6HR MIN TEMP:  33; 6HR MAX TEMP:  53;

RUSSELL        SUNNY     61  28  28 W23       29.96F
6HR MIN TEMP:  27; 6HR MAX TEMP:  61;

$$

KSZ061>065-074>080-084>089-101900-
SOUTHWEST KANSAS

CITY           SKY/WX    TMP DP  RH WIND       PRES   REMARKS
DODGE CITY     SUNNY     64  25  22 W14       30.04F
6HR MIN TEMP:  33; 6HR MAX TEMP:  65;

ELKHART          N/A     72  19  13 W10         N/A
GARDEN CITY    SUNNY     65  22  19 W14       30.06F
GREAT BEND     SUNNY     61  30  31 W9        29.99F
LIBERAL        SUNNY     70  27  19 W13       30.10F
PRATT          SUNNY     67  23  19 W18       30.00F
6HR MIN TEMP:  24; 6HR MAX TEMP:  67;

$$

KSZ066>073-081>083-090>101-101900-
SOUTHEAST KANSAS

CITY           SKY/WX    TMP DP  RH WIND       PRES   REMARKS
CHANUTE        SUNNY     41  16  36 S23       30.06F
6HR MIN TEMP:  21; 6HR MAX TEMP:  41;

COFFEYVILLE    SUNNY     43  16  33 SW13G25   30.11F
6HR MIN TEMP:  20; 6HR MAX TEMP:  43;

HUTCHINSON     SUNNY     54  28  36 SW10      30.00F
6HR MIN TEMP:  26; 6HR MAX TEMP:  54;

MEDICINE LODGE   N/A     63  27  25 SW14      30.00F
NEWTON         SUNNY     46  25  42 SW12      30.01F
PARSONS        SUNNY     43  17  35 SW18G28   30.09F
6HR MIN TEMP:  20; 6HR MAX TEMP:  43;

WICHITA INTL   SUNNY     49  27  42 SW14      30.01F
6HR MIN TEMP:  24; 6HR MAX TEMP:  49;

WICHITA JABRA  SUNNY     48  25  40 SW12      30.00F
6HR MIN TEMP:  23; 6HR MAX TEMP:  48;

WICHITA MCCONL SUNNY     48  26  42 S14       30.01F
WINFIELD       SUNNY     52  30  43 MISG      30.06F
6HR MIN TEMP:  22; 6HR MAX TEMP:  52;

$$

KSZ007>012-019>026-033>040-048>060-102>105-101900-
NORTHEAST KANSAS

CITY           SKY/WX    TMP DP  RH WIND       PRES   REMARKS
CONCORDIA      SUNNY     51  29  42 W12       29.93F
6HR MIN TEMP:  25; 6HR MAX TEMP:  51;

EMPORIA        SUNNY     47  22  37 SW15      30.00F
6HR MIN TEMP:  23; 6HR MAX TEMP:  47;

LAWRENCE       SUNNY     41  16  36 S17G23    30.02F
6HR MIN TEMP:  23; 6HR MAX TEMP:  41;

MANHATTAN      SUNNY     47  26  44 SW12      29.96F
6HR MIN TEMP:  27; 6HR MAX TEMP:  47;

MARYSVILLE     SUNNY     46  30  53 W10       29.93F
OLATHE IND     SUNNY     38  15  39 SW20G25   30.02F WCI  28
6HR MIN TEMP:  23; 6HR MAX TEMP:  38;

OLATHE EXE     CLOUDY    37  15  40 S16G22    30.02F WCI  28
6HR MIN TEMP:  22; 6HR MAX TEMP:  37;

SALINA         SUNNY     56  29  35 SW9       29.97F
6HR MIN TEMP:  28; 6HR MAX TEMP:  56;

TOPEKA BILLARD SUNNY     43  18  36 SW12      29.99F
6HR MIN TEMP:  25; 6HR MAX TEMP:  43;

TOPEKA FORBES  SUNNY     44  20  38 SW20      29.98F
6HR MIN TEMP:  23; 6HR MAX TEMP:  44;

$$




USA.gov is the U.S. government's official web portal to all federal, state and local government web resources and services.